EZY63DK EGKK-EDDH

Flight info

Callsign EZY63DK
Flight time N/A
Altitude 35000
Route FRANE M604 PAAVO Q295 SOMVA DCT MAVAS DCT PARYD DCT GASTU DCT OSTOR T904 RIBSO RIBSO3P
Aircraft A21N/M-SDE2E3FGHIJ1RWXYZ/LB1G1

Departure

Time N/A
Airport London Gatwick Airport (EGKK)

Arrival

Time 2026-05-04 00:22
Airport Hamburg Helmut Schmidt Airport (EDDH)
Time Latitude Longitude Altitude Speed Heading
2026-05-03 23:20 51.72594 1.25890 28738 ft 453 kts 64°
2026-05-03 23:20 51.74048 1.30494 29076 ft 456 kts 64°
2026-05-03 23:20 51.75503 1.35041 29420 ft 458 kts 64°
2026-05-03 23:21 51.76965 1.39625 29756 ft 460 kts 64°
2026-05-03 23:21 51.78425 1.44245 30061 ft 463 kts 64°
2026-05-03 23:21 51.79888 1.48892 30286 ft 466 kts 65°
2026-05-03 23:21 51.81354 1.53567 30557 ft 468 kts 65°
2026-05-03 23:22 51.84300 1.62996 31089 ft 472 kts 65°
2026-05-03 23:22 51.85769 1.67768 31332 ft 474 kts 65°
2026-05-03 23:22 51.87244 1.72549 31587 ft 476 kts 65°
2026-05-03 23:23 51.88728 1.77348 31885 ft 477 kts 65°
2026-05-03 23:23 51.90218 1.82148 32190 ft 477 kts 65°
2026-05-03 23:23 51.91702 1.86935 32483 ft 477 kts 65°
2026-05-03 23:23 51.93193 1.91757 32777 ft 478 kts 65°
2026-05-03 23:24 51.94690 1.96566 33035 ft 478 kts 65°
2026-05-03 23:24 51.96179 2.01395 33261 ft 479 kts 65°
2026-05-03 23:24 51.97663 2.06242 33483 ft 480 kts 66°
2026-05-03 23:24 51.99148 2.11080 33754 ft 480 kts 66°
2026-05-03 23:25 52.00628 2.15932 34000 ft 480 kts 66°
2026-05-03 23:25 52.02117 2.20807 34217 ft 480 kts 66°
2026-05-03 23:25 52.03595 2.25660 34463 ft 479 kts 66°
2026-05-03 23:25 52.05050 2.30435 34694 ft 478 kts 66°
2026-05-03 23:26 52.06536 2.35339 34900 ft 478 kts 65°
2026-05-03 23:26 52.08003 2.40191 34967 ft 477 kts 66°
2026-05-03 23:26 52.10908 2.49806 34928 ft 477 kts 66°
2026-05-03 23:27 52.13839 2.59582 34925 ft 477 kts 66°
2026-05-03 23:27 52.16747 2.69301 34923 ft 477 kts 66°
2026-05-03 23:28 52.19651 2.78950 34923 ft 477 kts 66°
2026-05-03 23:28 52.22565 2.88670 34925 ft 477 kts 66°
2026-05-03 23:29 52.25446 2.98416 34915 ft 477 kts 66°
2026-05-03 23:29 52.28322 3.08160 34924 ft 477 kts 66°
2026-05-03 23:30 52.31193 3.17938 34931 ft 477 kts 66°
2026-05-03 23:30 52.34053 3.27729 34932 ft 477 kts 66°
2026-05-03 23:31 52.36903 3.37520 34934 ft 477 kts 66°
2026-05-03 23:31 52.39745 3.47320 34937 ft 476 kts 66°
2026-05-03 23:32 52.42584 3.57160 34933 ft 478 kts 67°
2026-05-03 23:32 52.45415 3.67024 34935 ft 478 kts 67°
2026-05-03 23:33 52.48235 3.76885 34930 ft 477 kts 67°
2026-05-03 23:33 52.51048 3.86741 34931 ft 477 kts 67°
2026-05-03 23:34 52.53849 3.96603 34929 ft 477 kts 67°
2026-05-03 23:34 52.56649 4.06505 34923 ft 478 kts 67°
2026-05-03 23:35 52.59441 4.16410 34933 ft 477 kts 67°
2026-05-03 23:35 52.62218 4.26331 34930 ft 477 kts 68°
2026-05-03 23:36 52.64988 4.36253 34936 ft 477 kts 68°
2026-05-03 23:36 52.67752 4.46191 34937 ft 477 kts 68°
2026-05-03 23:37 52.70503 4.56133 34940 ft 476 kts 68°
2026-05-03 23:37 52.73243 4.66078 34933 ft 476 kts 68°
2026-05-03 23:38 52.75970 4.76042 34941 ft 476 kts 68°
2026-05-03 23:38 52.78696 4.86017 34927 ft 476 kts 68°
2026-05-03 23:39 52.81411 4.96001 34934 ft 476 kts 68°
2026-05-03 23:39 52.84096 5.05939 34921 ft 477 kts 68°
2026-05-03 23:40 52.86825 5.16014 34931 ft 477 kts 68°
2026-05-03 23:40 52.89519 5.26042 34938 ft 477 kts 68°
2026-05-03 23:41 52.92201 5.36081 34925 ft 476 kts 69°
2026-05-03 23:41 52.94877 5.46132 34928 ft 476 kts 69°
2026-05-03 23:42 52.97544 5.56175 34934 ft 476 kts 69°
2026-05-03 23:42 53.00200 5.66250 34923 ft 477 kts 69°
2026-05-03 23:43 53.02832 5.76280 34932 ft 477 kts 69°
2026-05-03 23:43 53.05473 5.86396 34932 ft 477 kts 69°
2026-05-03 23:44 53.08108 5.96519 34934 ft 477 kts 69°
2026-05-03 23:44 53.10735 6.06652 34948 ft 476 kts 69°
2026-05-03 23:45 53.13327 6.16805 34920 ft 478 kts 69°
2026-05-03 23:45 53.15926 6.26999 34921 ft 478 kts 69°
2026-05-03 23:46 53.18567 6.37182 34921 ft 478 kts 69°
2026-05-03 23:46 53.21172 6.47389 34915 ft 478 kts 69°
2026-05-03 23:47 53.23762 6.57609 34931 ft 478 kts 69°
2026-05-03 23:47 53.26335 6.67836 34905 ft 478 kts 69°
2026-05-03 23:48 53.28904 6.78102 34923 ft 479 kts 69°
2026-05-03 23:48 53.31482 6.88386 34914 ft 481 kts 69°
2026-05-03 23:49 53.34055 6.98706 34909 ft 481 kts 70°
2026-05-03 23:49 53.36614 7.09040 34905 ft 481 kts 70°
2026-05-03 23:50 53.38733 7.17627 34857 ft 475 kts 70°
2026-05-03 23:50 53.40408 7.24465 33697 ft 479 kts 70°
2026-05-03 23:50 53.41686 7.29696 32664 ft 484 kts 70°
2026-05-03 23:51 53.42957 7.34907 32020 ft 480 kts 70°
2026-05-03 23:51 53.44218 7.40063 31374 ft 477 kts 70°
2026-05-03 23:51 53.45471 7.45208 30723 ft 474 kts 70°
2026-05-03 23:51 53.46705 7.50299 30118 ft 470 kts 70°
2026-05-03 23:52 53.47930 7.55361 29458 ft 466 kts 70°
2026-05-03 23:52 53.49140 7.60371 28794 ft 461 kts 70°
2026-05-03 23:52 53.50334 7.65338 28245 ft 455 kts 70°
2026-05-03 23:52 53.51512 7.70241 27587 ft 451 kts 70°
2026-05-03 23:53 53.52673 7.75066 27010 ft 446 kts 70°
2026-05-03 23:53 53.53839 7.79927 26408 ft 442 kts 70°
2026-05-03 23:53 53.54971 7.84663 25928 ft 435 kts 70°
2026-05-03 23:53 53.56092 7.89364 25277 ft 432 kts 69°
2026-05-03 23:54 53.57201 7.94035 24676 ft 427 kts 69°
2026-05-03 23:54 53.58283 7.98604 24165 ft 425 kts 69°
2026-05-03 23:54 53.59364 8.03209 23707 ft 421 kts 69°
2026-05-03 23:54 53.60444 8.07836 23159 ft 418 kts 69°
2026-05-03 23:55 53.61499 8.12367 22612 ft 414 kts 69°
2026-05-03 23:55 53.62549 8.16853 22099 ft 410 kts 69°
2026-05-03 23:55 53.63591 8.21311 21545 ft 407 kts 69°
2026-05-03 23:55 53.64620 8.25664 21063 ft 403 kts 69°
2026-05-03 23:56 53.65673 8.30086 20560 ft 400 kts 69°
2026-05-03 23:56 53.66684 8.34372 20042 ft 397 kts 69°
2026-05-03 23:56 53.67708 8.38746 19501 ft 395 kts 69°
2026-05-03 23:56 53.68695 8.42986 19003 ft 391 kts 69°
2026-05-03 23:57 53.69693 8.47288 18344 ft 387 kts 69°
2026-05-03 23:57 53.70668 8.51499 17831 ft 383 kts 69°
2026-05-03 23:57 53.71616 8.55611 17367 ft 379 kts 69°
2026-05-03 23:57 53.72577 8.59784 16933 ft 374 kts 70°
2026-05-03 23:58 53.73513 8.63865 16512 ft 370 kts 69°
2026-05-03 23:58 53.74429 8.67841 16109 ft 366 kts 69°
2026-05-03 23:58 53.75341 8.71817 15734 ft 361 kts 69°
2026-05-03 23:58 53.76240 8.75743 15377 ft 356 kts 69°
2026-05-03 23:59 53.77124 8.79623 15031 ft 351 kts 70°
2026-05-03 23:59 53.77992 8.83441 14677 ft 347 kts 70°
2026-05-03 23:59 53.78851 8.87229 14306 ft 343 kts 70°
2026-05-03 23:59 53.79705 8.90985 13934 ft 340 kts 69°
2026-05-04 00:00 53.80550 8.94696 13585 ft 336 kts 70°
2026-05-04 00:00 53.81385 8.98379 13224 ft 335 kts 70°
2026-05-04 00:00 53.82218 9.02064 12859 ft 335 kts 70°
2026-05-04 00:00 53.82846 9.05838 12524 ft 332 kts 87°
2026-05-04 00:01 53.82789 9.09698 12196 ft 328 kts 98°
2026-05-04 00:01 53.82536 9.13535 11849 ft 328 kts 99°
2026-05-04 00:01 53.82480 9.17365 11533 ft 326 kts 84°
2026-05-04 00:01 53.82890 9.21127 11269 ft 325 kts 79°
2026-05-04 00:02 53.83372 9.24850 11007 ft 324 kts 79°
2026-05-04 00:02 53.83842 9.28579 10771 ft 323 kts 79°
2026-05-04 00:02 53.84289 9.32294 10530 ft 322 kts 80°
2026-05-04 00:02 53.84719 9.36004 10293 ft 321 kts 80°
2026-05-04 00:03 53.85148 9.39701 10129 ft 318 kts 80°
2026-05-04 00:03 53.85427 9.42129 10030 ft 317 kts 80°
2026-05-04 00:03 53.85990 9.47034 9862 ft 318 kts 81°
2026-05-04 00:03 53.86268 9.49469 9778 ft 318 kts 81°
2026-05-04 00:04 53.86821 9.54381 9623 ft 317 kts 81°
2026-05-04 00:04 53.87095 9.56815 9536 ft 317 kts 81°
2026-05-04 00:04 53.87508 9.60486 9404 ft 317 kts 81°
2026-05-04 00:04 53.87919 9.64150 9272 ft 316 kts 81°
2026-05-04 00:05 53.88329 9.67797 9145 ft 316 kts 81°
2026-05-04 00:05 53.88739 9.71456 9016 ft 315 kts 81°
2026-05-04 00:05 53.89145 9.75100 8883 ft 314 kts 81°
2026-05-04 00:05 53.89547 9.78735 8756 ft 314 kts 81°
2026-05-04 00:06 53.89950 9.82375 8624 ft 314 kts 81°
2026-05-04 00:06 53.90350 9.86006 8499 ft 313 kts 81°
2026-05-04 00:06 53.90749 9.89636 8371 ft 313 kts 81°
2026-05-04 00:06 53.91147 9.93260 8241 ft 313 kts 81°
2026-05-04 00:07 53.91543 9.96881 8117 ft 312 kts 81°
2026-05-04 00:07 53.91937 10.00503 7999 ft 311 kts 81°
2026-05-04 00:07 53.92327 10.04112 7854 ft 311 kts 81°
2026-05-04 00:07 53.92714 10.07717 7733 ft 312 kts 81°
2026-05-04 00:08 53.93110 10.11367 7607 ft 310 kts 81°
2026-05-04 00:08 53.93495 10.14910 7475 ft 309 kts 81°
2026-05-04 00:08 53.93886 10.18542 7357 ft 309 kts 81°
2026-05-04 00:08 53.94266 10.22098 7233 ft 309 kts 81°
2026-05-04 00:09 53.94649 10.25677 7106 ft 308 kts 81°
2026-05-04 00:09 53.95030 10.29252 6983 ft 307 kts 81°
2026-05-04 00:09 53.95406 10.32779 6875 ft 298 kts 81°
2026-05-04 00:09 53.95761 10.36136 6913 ft 280 kts 81°
2026-05-04 00:10 53.96093 10.39273 6915 ft 259 kts 81°
2026-05-04 00:10 53.96394 10.42132 6950 ft 236 kts 82°
2026-05-04 00:10 53.96543 10.44798 6884 ft 221 kts 102°
2026-05-04 00:10 53.95890 10.47007 6941 ft 204 kts 146°
2026-05-04 00:11 53.94754 10.48367 6932 ft 199 kts 155°
2026-05-04 00:11 53.93621 10.49732 6915 ft 200 kts 152°
2026-05-04 00:11 53.92519 10.51171 6855 ft 201 kts 150°
2026-05-04 00:11 53.91391 10.52543 6665 ft 195 kts 161°
2026-05-04 00:12 53.90153 10.52886 6433 ft 174 kts 199°
2026-05-04 00:12 53.89115 10.51930 6255 ft 170 kts 227°
2026-05-04 00:12 53.88377 10.50385 6060 ft 168 kts 235°
2026-05-04 00:12 53.87650 10.48835 5902 ft 168 kts 234°
2026-05-04 00:13 53.86910 10.47309 5702 ft 168 kts 233°
2026-05-04 00:13 53.86165 10.45791 5485 ft 167 kts 233°
2026-05-04 00:13 53.85424 10.44292 5267 ft 166 kts 233°
2026-05-04 00:13 53.84686 10.42779 5081 ft 166 kts 233°
2026-05-04 00:14 53.83939 10.41285 4910 ft 166 kts 233°
2026-05-04 00:14 53.83178 10.39812 4704 ft 166 kts 233°
2026-05-04 00:14 53.82436 10.38317 4514 ft 165 kts 234°
2026-05-04 00:14 53.81701 10.36820 4313 ft 166 kts 234°
2026-05-04 00:15 53.80964 10.35315 4113 ft 166 kts 234°
2026-05-04 00:15 53.80230 10.33816 3924 ft 165 kts 233°
2026-05-04 00:15 53.79496 10.32314 3704 ft 167 kts 233°
2026-05-04 00:15 53.78757 10.30807 3518 ft 166 kts 233°
2026-05-04 00:16 53.78019 10.29299 3444 ft 166 kts 233°
2026-05-04 00:16 53.77276 10.27781 3415 ft 169 kts 234°
2026-05-04 00:16 53.76538 10.26276 3367 ft 170 kts 234°
2026-05-04 00:16 53.75782 10.24735 3317 ft 167 kts 234°
2026-05-04 00:17 53.75044 10.23231 3265 ft 166 kts 234°
2026-05-04 00:17 53.74319 10.21751 3213 ft 166 kts 233°
2026-05-04 00:17 53.73576 10.20237 3084 ft 168 kts 233°
2026-05-04 00:17 53.72848 10.18757 2890 ft 154 kts 234°
2026-05-04 00:18 53.72201 10.17440 2687 ft 136 kts 235°
2026-05-04 00:18 53.71627 10.16271 2514 ft 127 kts 236°
2026-05-04 00:18 53.71062 10.15120 2363 ft 127 kts 236°
2026-05-04 00:18 53.70499 10.13973 2194 ft 127 kts 235°
2026-05-04 00:19 53.69937 10.12830 2028 ft 126 kts 235°
2026-05-04 00:19 53.69376 10.11690 1855 ft 126 kts 235°
2026-05-04 00:19 53.68826 10.10573 1702 ft 126 kts 235°
2026-05-04 00:19 53.68264 10.09430 1535 ft 127 kts 235°
2026-05-04 00:20 53.67710 10.08304 1368 ft 126 kts 236°
2026-05-04 00:20 53.67139 10.07144 1169 ft 129 kts 235°
2026-05-04 00:20 53.66563 10.05974 1001 ft 129 kts 234°
2026-05-04 00:20 53.65997 10.04828 788 ft 127 kts 233°
2026-05-04 00:21 53.65434 10.03673 604 ft 127 kts 231°
2026-05-04 00:21 53.64871 10.02540 457 ft 127 kts 232°
2026-05-04 00:21 53.64315 10.01385 290 ft 129 kts 230°
2026-05-04 00:21 53.63733 10.00228 138 ft 128 kts 231°
2026-05-04 00:22 53.63202 9.99146 52 ft 120 kts 230°
2026-05-04 00:22 53.62778 9.98289 48 ft 65 kts 230°
2026-05-04 00:22 53.62608 9.97945 47 ft 23 kts 230°
2026-05-04 00:22 53.62573 9.97875 46 ft 24 kts 230°